Hourly Data Report for August 31, 2020

SVARTEVAEG
NUNAVUT
Current Station Operator: ECCC - MSC

81°09'39.000" N
91°48'59.060" W
72.00 m
2403833
71872
NSG

Download Data

Hourly Data (August 2020)
Hourly Data Report for August 31, 2020
TIME Temp Definition
°C
Dew Point Definition
°C
Rel Hum Definition
%
Wind Dir Definition
10's deg

Wind Spd Definition
km/h
Visibility Definition
km
Stn Press Definition
kPa
Hmdx Definition


Wind Chill Definition


Weather Definition


00:00 -2.4 -2.9 96 26 16   99.90   -8 LegendNANA
01:00 -2.3 -2.8 96 27 19   99.90   -8 LegendNANA
02:00 -2.5 -2.7 99 26 22   99.88   -9 LegendNANA
03:00 -2.5 -2.5 99 27 18   99.87   -8 LegendNANA
04:00 -2.3 -2.4 99 26 20   99.85   -8 LegendNANA
05:00 -2.0 -2.2 98 26 16   99.85   -7 LegendNANA
06:00 -1.6 -2.1 96 26 13   99.83   -6 LegendNANA
07:00 -1.3 -2.0 96 26 10   99.82   -5 LegendNANA
08:00 -1.2 -2.3 92 26 10   99.80   -5 LegendNANA
09:00 -0.2 -1.5 91 31 5   99.78   -2 LegendNANA
10:00 0.0 -1.6 89 35 7   99.79   -2 LegendNANA
11:00 0.0 -1.6 89 35 8   99.78   -3 LegendNANA
12:00 0.0 -1.3 91 35 12   99.79   -4 LegendNANA
13:00 0.1 -1.6 88 32 8   99.80     LegendNANA
14:00 0.1 -1.1 92 34 16   99.83     LegendNANA
15:00 -0.1 -1.1 93 34 16   99.84   -5 LegendNANA
16:00 0.1 -1.0 92 34 11   99.86     LegendNANA
17:00 -0.1 -1.0 93 34 10   99.89   -3 LegendNANA
18:00 -0.2 -1.1 94 34 12   99.93   -4 LegendNANA
19:00 -0.6 -1.7 92 34 13   99.97   -5 LegendNANA
20:00 -0.9 -1.8 94 34 12   100.00   -5 LegendNANA
21:00 -0.7 -2.2 89 34 15   100.03   -5 LegendNANA
22:00 -0.5 -2.5 87 34 11   100.06   -4 LegendNANA
23:00 -0.8 -2.5 88 34 13   100.11   -5 LegendNANA

Notes on Data Quality.

Legend

  • E = Estimated
  • M = Missing
  • NA = Not Available*
  • [empty] = Indicates an unobserved value
Date modified: